Total_Precipitation_Accumulation
2.05 2.37 2.84 3.29 3.78 3.89 4.00 3.98 4.11 4.35 4.52 4.66 4.62 4.76 4.76 4.73 4.89 5.08 5.07 5.17 5.22 5.03 4.95 4.80 4.63 4.37 4.10 3.98 3.90 3.73 3.57 3.30 3.19 3.03 2.74 2.34 2.03 2.03 2.01 1.94 2.02 2.07 2.04
2.26 2.44 2.95 3.36 3.79 4.03 4.16 4.35 4.47 4.49 4.60 5.04 5.42 5.71 6.01 6.04 5.97 6.07 6.07 5.89 5.75 5.66 5.46 5.38 5.12 4.72 4.43 4.12 3.88 3.69 3.42 3.17 3.16 3.18 3.22 2.76 2.33 1.89 1.64 1.69 1.74 1.74 1.76
2.58 2.50 2.64 3.01 3.44 3.81 4.03 4.23 4.51 4.87 5.35 5.93 6.34 6.61 6.92 7.04 6.83 6.55 6.36 6.10 5.88 5.73 5.37 5.15 5.02 4.72 4.26 3.97 3.78 3.58 3.37 3.14 3.05 3.03 3.26 3.04 2.60 2.15 1.85 1.65 1.55 1.57 1.69
2.32 2.45 2.49 2.73 3.06 3.37 3.72 4.10 4.45 5.06 5.94 6.60 7.00 7.35 7.43 7.42 7.31 7.03 6.57 6.04 5.67 5.34 5.00 4.73 4.45 4.18 3.84 3.58 3.37 3.28 3.22 3.12 2.94 2.90 2.76 2.56 2.40 2.39 2.14 1.87 1.71 1.66 1.68
2.01 2.11 2.21 2.41 2.79 3.12 3.48 3.92 4.33 5.00 5.69 6.33 6.89 7.32 7.46 7.39 7.18 6.74 6.17 5.54 5.04 4.61 4.22 3.96 3.71 3.47 3.20 2.98 2.79 2.74 2.84 2.88 2.80 2.76 2.72 2.60 2.50 2.38 2.22 2.06 1.99 1.94 1.81
2.10 2.09 2.07 2.15 2.38 2.72 3.06 3.52 3.95 4.49 5.12 5.59 6.14 6.47 6.63 6.50 6.11 5.60 4.99 4.56 4.22 3.89 3.51 3.22 2.99 2.74 2.51 2.36 2.27 2.22 2.26 2.40 2.47 2.51 2.51 2.50 2.57 2.52 2.47 2.31 2.19 2.12 1.97
2.26 2.16 2.10 2.09 2.20 2.44 2.75 3.03 3.27 3.73 4.08 4.44 4.92 5.19 5.18 4.98 4.70 4.42 4.17 3.78 3.34 2.97 2.71 2.45 2.25 2.04 1.96 1.95 1.96 1.97 2.00 2.04 2.11 2.22 2.29 2.31 2.33 2.36 2.50 2.61 2.45 2.24 1.98
2.07 2.05 2.02 2.09 2.15 2.13 2.34 2.51 2.58 2.80 3.02 3.22 3.44 3.51 3.47 3.42 3.40 3.27 2.98 2.66 2.30 1.98 1.87 1.79 1.65 1.60 1.63 1.61 1.68 1.73 1.76 1.81 1.83 1.83 2.00 2.13 2.09 2.03 2.14 2.39 2.45 2.35 2.12
1.85 1.90 1.99 2.09 2.09 1.98 1.95 2.02 2.05 2.06 2.13 2.20 2.33 2.36 2.33 2.38 2.38 2.33 2.19 1.96 1.79 1.58 1.44 1.41 1.39 1.37 1.43 1.46 1.50 1.49 1.45 1.52 1.60 1.62 1.73 1.84 1.83 1.76 1.75 1.87 2.04 2.19 2.16
1.91 1.84 1.81 1.89 1.95 1.80 1.76 1.83 1.87 1.73 1.67 1.61 1.61 1.59 1.69 1.75 1.78 1.74 1.61 1.54 1.48 1.38 1.27 1.18 1.16 1.12 1.12 1.18 1.33 1.35 1.32 1.33 1.33 1.36 1.47 1.54 1.53 1.55 1.52 1.57 1.66 1.85 1.99
1.88 1.89 1.82 1.73 1.72 1.68 1.68 1.58 1.56 1.53 1.45 1.39 1.39 1.33 1.32 1.36 1.34 1.24 1.17 1.17 1.17 1.13 1.06 0.98 0.94 0.91 0.90 0.96 1.10 1.17 1.18 1.22 1.20 1.16 1.15 1.19 1.24 1.33 1.31 1.35 1.42 1.58 1.76
1.96 1.87 1.79 1.68 1.67 1.58 1.54 1.46 1.41 1.34 1.29 1.30 1.33 1.23 1.15 1.14 1.19 1.14 1.04 0.99 0.98 0.96 0.92 0.89 0.86 0.82 0.83 0.91 0.97 0.98 0.98 1.05 1.04 1.02 1.01 1.00 1.08 1.18 1.20 1.24 1.27 1.38 1.53
2.29 2.03 1.85 1.59 1.47 1.36 1.27 1.24 1.23 1.19 1.18 1.24 1.30 1.30 1.21 1.13 1.10 1.06 0.96 0.88 0.89 0.90 0.87 0.85 0.86 0.86 0.83 0.86 0.87 0.84 0.87 0.93 0.95 0.94 0.92 0.92 1.01 1.04 1.06 1.10 1.14 1.19 1.21
1.85 1.67 1.58 1.40 1.29 1.21 1.19 1.13 1.08 1.07 1.06 1.11 1.21 1.26 1.22 1.13 1.05 1.02 1.00 0.92 0.89 0.84 0.80 0.79 0.80 0.78 0.74 0.77 0.79 0.77 0.83 0.91 0.87 0.81 0.82 0.84 0.84 0.86 0.95 0.96 1.05 1.16 1.24
1.69 1.60 1.54 1.49 1.34 1.22 1.12 1.03 0.98 0.97 0.95 1.03 1.08 1.08 1.06 1.04 0.96 0.93 0.96 0.89 0.86 0.82 0.80 0.75 0.73 0.68 0.66 0.67 0.70 0.68 0.68 0.79 0.79 0.77 0.78 0.75 0.73 0.72 0.76 0.78 0.88 1.05 1.23
1.86 1.77 1.72 1.63 1.46 1.23 1.13 1.07 1.05 1.03 1.01 1.01 1.01 0.94 0.90 0.89 0.83 0.81 0.78 0.74 0.76 0.81 0.82 0.83 0.79 0.71 0.62 0.69 0.67 0.59 0.64 0.72 0.76 0.78 0.79 0.74 0.67 0.62 0.62 0.60 0.67 0.84 1.04
1.95 1.92 1.89 1.81 1.64 1.44 1.33 1.23 1.16 1.08 1.05 1.04 0.94 0.88 0.86 0.84 0.78 0.75 0.74 0.74 0.75 0.80 0.83 0.84 0.84 0.77 0.68 0.70 0.65 0.61 0.64 0.73 0.83 0.87 0.85 0.73 0.63 0.69 0.69 0.66 0.63 0.67 0.76
2.02 1.97 1.88 1.77 1.69 1.55 1.37 1.20 1.05 1.00 1.05 1.04 0.94 0.85 0.84 0.84 0.80 0.82 0.84 0.82 0.80 0.83 0.89 0.91 0.85 0.81 0.74 0.72 0.65 0.62 0.62 0.66 0.76 0.80 0.80 0.86 0.88 0.77 0.70 0.64 0.70 0.79 0.85
2.02 1.95 1.82 1.72 1.65 1.48 1.28 1.12 1.06 0.99 0.99 0.96 0.87 0.78 0.75 0.80 0.78 0.77 0.80 0.81 0.84 0.87 0.90 0.89 0.85 0.83 0.78 0.68 0.63 0.66 0.68 0.65 0.66 0.65 0.65 0.73 0.79 0.72 0.67 0.69 0.79 0.87 0.93
2.03 1.97 1.74 1.58 1.46 1.25 1.06 1.00 0.99 0.93 0.88 0.79 0.74 0.68 0.71 0.74 0.73 0.73 0.76 0.81 0.85 0.85 0.84 0.87 0.87 0.83 0.76 0.62 0.56 0.61 0.63 0.64 0.63 0.65 0.68 0.65 0.60 0.60 0.62 0.70 0.87 0.97 0.97
1.76 1.69 1.55 1.43 1.23 1.04 0.97 1.01 0.93 0.83 0.71 0.63 0.65 0.69 0.73 0.78 0.73 0.77 0.81 0.82 0.82 0.87 0.85 0.81 0.79 0.76 0.63 0.51 0.46 0.47 0.49 0.55 0.58 0.65 0.71 0.68 0.57 0.56 0.56 0.66 0.83 0.98 1.05
1.51 1.43 1.37 1.27 1.14 1.03 1.02 1.08 0.99 0.79 0.67 0.67 0.70 0.73 0.75 0.64 0.60 0.77 0.79 0.76 0.83 0.88 0.82 0.77 0.73 0.66 0.57 0.42 0.36 0.36 0.38 0.45 0.53 0.72 0.71 0.65 0.59 0.53 0.54 0.64 0.83 0.94 1.17
1.30 1.18 1.09 1.11 1.11 1.09 1.09 1.10 1.01 0.82 0.76 0.83 0.83 0.77 0.75 0.74 0.77 0.79 0.74 0.73 0.76 0.72 0.61 0.58 0.59 0.55 0.53 0.47 0.37 0.33 0.35 0.40 0.46 0.64 0.67 0.63 0.61 0.61 0.75 0.85 0.98 1.10 1.32
1.12 1.08 1.04 1.06 1.05 1.00 0.92 0.96 0.87 0.81 0.86 0.89 0.82 0.77 0.78 0.84 0.83 0.75 0.62 0.60 0.58 0.56 0.54 0.51 0.51 0.50 0.48 0.40 0.34 0.32 0.36 0.42 0.46 0.57 0.73 0.81 0.84 0.87 0.99 1.10 1.21 1.31 1.40
0.90 0.94 0.98 0.95 0.88 0.82 0.74 0.74 0.74 0.75 0.88 0.90 0.83 0.75 0.68 0.70 0.73 0.60 0.46 0.45 0.43 0.41 0.48 0.50 0.48 0.48 0.44 0.33 0.33 0.31 0.33 0.40 0.47 0.54 0.75 0.96 1.03 1.10 1.16 1.17 1.23 1.30 1.27
0.75 0.80 0.83 0.78 0.75 0.72 0.69 0.69 0.65 0.63 0.80 0.84 0.79 0.68 0.57 0.53 0.49 0.45 0.45 0.40 0.34 0.35 0.39 0.44 0.41 0.35 0.35 0.31 0.28 0.32 0.36 0.42 0.52 0.60 0.84 1.03 1.09 1.12 1.15 1.14 1.16 1.18 1.13